| time (UTC) | temp F | wind direction | speed MPH | gust MPH | rain 1hr in | rain 24hr in | rain mn in | humidity % | barometer mb |
| 20260510222918 | 55 | 167 | 3.0 | 8.0 | 0.00 | 0.22 | 0.22 | 83 | 1017.8 |
| 20260510221803 | 55 | 168 | 3.0 | 7.0 | 0.00 | 0.22 | 0.22 | 83 | 1017.6 |
| 20260510221117 | 55 | 162 | 4.0 | 8.0 | 0.00 | 0.22 | 0.22 | 83 | 1017.8 |
| 20260510220218 | 55 | 164 | 5.0 | 7.0 | 0.00 | 0.22 | 0.22 | 83 | 1017.6 |
| 20260510215403 | 55 | 166 | 5.0 | 8.0 | 0.00 | 0.22 | 0.22 | 82 | 1017.5 |
| 20260510214503 | 55 | 158 | 6.0 | 9.0 | 0.00 | 0.22 | 0.22 | 81 | 1017.3 |
| 20260510213603 | 55 | 158 | 5.0 | 8.0 | 0.00 | 0.22 | 0.22 | 81 | 1017.4 |
| 20260510212918 | 56 | 158 | 5.0 | 7.0 | 0.00 | 0.22 | 0.22 | 80 | 1017.5 |
| 20260510212017 | 56 | 158 | 5.0 | 7.0 | 0.00 | 0.22 | 0.22 | 79 | 1017.5 |
| 20260510211116 | 56 | 156 | 5.0 | 7.0 | 0.00 | 0.22 | 0.22 | 79 | 1017.5 |
| 20260510210003 | 56 | 151 | 5.0 | 8.0 | 0.00 | 0.22 | 0.22 | 79 | 1017.2 |
| 20260510205403 | 56 | 150 | 5.0 | 8.0 | 0.00 | 0.22 | 0.22 | 78 | 1017.4 |
| 20260510204503 | 57 | 153 | 6.0 | 8.0 | 0.00 | 0.22 | 0.22 | 78 | 1017.3 |
| 20260510203818 | 57 | 147 | 6.0 | 9.0 | 0.00 | 0.22 | 0.22 | 78 | 1017.2 |
| 20260510202917 | 57 | 152 | 6.0 | 9.0 | 0.00 | 0.22 | 0.22 | 78 | 1016.8 |
| 20260510201803 | 57 | 159 | 6.0 | 9.0 | 0.00 | 0.22 | 0.22 | 77 | 1016.9 |
| 20260510200903 | 58 | 161 | 7.0 | 14.0 | 0.00 | 0.22 | 0.22 | 75 | 1016.7 |
| 20260510200003 | 58 | 155 | 7.0 | 11.0 | 0.00 | 0.22 | 0.22 | 75 | 1016.7 |
| 20260510195403 | 58 | 158 | 7.0 | 11.0 | 0.00 | 0.22 | 0.22 | 74 | 1016.3 |
| 20260510194503 | 59 | 158 | 9.0 | 14.0 | 0.00 | 0.22 | 0.22 | 73 | 1016.4 |
| 20260510193603 | 59 | 151 | 9.0 | 14.0 | 0.00 | 0.22 | 0.22 | 73 | 1016.3 |
| 20260510192703 | 60 | 152 | 9.0 | 14.0 | 0.00 | 0.22 | 0.22 | 73 | 1016.3 |
| 20260510191803 | 60 | 160 | 8.0 | 14.0 | 0.00 | 0.22 | 0.22 | 72 | 1016.2 |
| 20260510190903 | 60 | 150 | 10.0 | 18.0 | 0.00 | 0.22 | 0.22 | 70 | 1016.1 |
| 20260510190003 | 60 | 156 | 11.0 | 18.0 | 0.00 | 0.22 | 0.22 | 70 | 1016.4 |
| 20260510185403 | 60 | 159 | 9.0 | 18.0 | 0.00 | 0.22 | 0.22 | 69 | 1016.2 |
| 20260510184503 | 60 | 156 | 10.0 | 17.0 | 0.00 | 0.22 | 0.22 | 70 | 1016.3 |
| 20260510183603 | 61 | 168 | 10.0 | 17.0 | 0.00 | 0.22 | 0.22 | 69 | 1016.2 |
| 20260510182703 | 61 | 153 | 8.0 | 16.0 | 0.00 | 0.22 | 0.22 | 68 | 1016.0 |
| 20260510182018 | 61 | 153 | 10.0 | 21.0 | 0.00 | 0.22 | 0.22 | 70 | 1016.0 |
| 20260510180903 | 62 | 158 | 11.0 | 18.0 | 0.00 | 0.22 | 0.22 | 68 | 1015.8 |
| 20260510180003 | 62 | 157 | 10.0 | 19.0 | 0.00 | 0.22 | 0.22 | 67 | 1015.7 |
| 20260510175403 | 61 | 164 | 9.0 | 19.0 | 0.00 | 0.22 | 0.22 | 68 | 1015.8 |
| 20260510174503 | 62 | 170 | 7.0 | 17.0 | 0.00 | 0.22 | 0.22 | 69 | 1015.7 |
| 20260510173603 | 62 | 174 | 8.0 | 17.0 | 0.00 | 0.22 | 0.22 | 67 | 1015.6 |
| 20260510172703 | 63 | 179 | 6.0 | 13.0 | 0.00 | 0.22 | 0.22 | 69 | 1015.6 |
| 20260510171803 | 62 | 189 | 9.0 | 17.0 | 0.00 | 0.22 | 0.22 | 69 | 1015.4 |
| 20260510170903 | 62 | 171 | 8.0 | 18.0 | 0.00 | 0.22 | 0.22 | 70 | 1015.6 |
| 20260510170003 | 62 | 184 | 8.0 | 16.0 | 0.00 | 0.22 | 0.22 | 69 | 1015.4 |
| 20260510165403 | 63 | 193 | 8.0 | 21.0 | 0.00 | 0.22 | 0.22 | 68 | 1015.4 |
| 20260510164717 | 62 | 177 | 9.0 | 25.0 | 0.00 | 0.22 | 0.22 | 69 | 1015.5 |
| 20260510163603 | 61 | 159 | 10.0 | 21.0 | 0.00 | 0.22 | 0.22 | 81 | 1015.7 |
| 20260510162703 | 61 | 156 | 11.0 | 19.0 | 0.00 | 0.22 | 0.22 | 81 | 1015.5 |
| 20260510161803 | 61 | 154 | 11.0 | 19.0 | 0.00 | 0.22 | 0.22 | 82 | 1015.5 |
| 20260510160903 | 60 | 161 | 10.0 | 17.0 | 0.00 | 0.22 | 0.22 | 85 | 1015.5 |
| 20260510160003 | 59 | 153 | 10.0 | 16.0 | 0.00 | 0.22 | 0.22 | 87 | 1015.4 |
| 20260510155403 | 59 | 154 | 8.0 | 15.0 | 0.00 | 0.22 | 0.22 | 88 | 1015.5 |
| 20260510154503 | 59 | 166 | 7.0 | 15.0 | 0.00 | 0.22 | 0.22 | 88 | 1015.3 |
| 20260510153816 | 59 | 180 | 7.0 | 16.0 | 0.00 | 0.22 | 0.22 | 88 | 1015.3 |
| 20260510152917 | 59 | 192 | 8.0 | 17.0 | 0.00 | 0.22 | 0.22 | 88 | 1015.3 |
| 20260510151803 | 58 | 197 | 10.0 | 21.0 | 0.00 | 0.24 | 0.22 | 88 | 1015.4 |
| 20260510150903 | 58 | 190 | 10.0 | 19.0 | 0.01 | 0.24 | 0.22 | 88 | 1015.4 |
| 20260510150003 | 58 | 198 | 10.0 | 21.0 | 0.01 | 0.25 | 0.22 | 88 | 1015.3 |
| 20260510145403 | 58 | 205 | 10.0 | 21.0 | 0.01 | 0.27 | 0.22 | 89 | 1015.5 |
| 20260510144717 | 57 | 204 | 11.0 | 25.0 | 0.01 | 0.31 | 0.22 | 90 | 1015.2 |
| 20260510143603 | 58 | 207 | 14.0 | 29.0 | 0.01 | 0.35 | 0.22 | 89 | 1015.3 |
| 20260510142706 | 60 | 188 | 8.0 | 19.0 | 0.01 | 0.39 | 0.22 | 86 | 1015.1 |
| 20260510140903 | 61 | 128 | 8.0 | 13.0 | 0.00 | 0.37 | 0.21 | 87 | 1014.8 |
| 20260510140003 | 63 | 122 | 9.0 | 16.0 | 0.00 | 0.37 | 0.21 | 81 | 1014.9 |
| 20260510135403 | 63 | 117 | 9.0 | 16.0 | 0.00 | 0.37 | 0.21 | 79 | 1014.9 |
| 20260510134718 | 63 | 141 | 11.0 | 22.0 | 0.00 | 0.37 | 0.21 | 79 | 1015.0 |
| 20260510133603 | 62 | 141 | 16.0 | 25.0 | 0.00 | 0.37 | 0.21 | 79 | 1015.2 |
| 20260510132707 | 62 | 150 | 15.0 | 24.0 | 0.00 | 0.37 | 0.21 | 79 | 1015.3 |
| 20260510131806 | 63 | 150 | 13.0 | 25.0 | 0.00 | 0.37 | 0.21 | 78 | 1015.3 |
| 20260510130904 | 61 | 145 | 11.0 | 19.0 | 0.00 | 0.37 | 0.21 | 83 | 1015.3 |
| 20260510130003 | 59 | 146 | 10.0 | 17.0 | 0.00 | 0.37 | 0.21 | 85 | 1015.5 |
| 20260510124718 | 59 | 145 | 11.0 | 18.0 | 0.00 | 0.37 | 0.21 | 86 | 1015.7 |
| 20260510123603 | 59 | 149 | 11.0 | 18.0 | 0.00 | 0.37 | 0.21 | 84 | 1015.6 |
| 20260510122709 | 59 | 141 | 12.0 | 18.0 | 0.01 | 0.37 | 0.21 | 84 | 1015.8 |
| 20260510121803 | 58 | 156 | 13.0 | 22.0 | 0.01 | 0.37 | 0.21 | 87 | 1015.9 |
| 20260510120903 | 57 | 144 | 12.0 | 18.0 | 0.01 | 0.37 | 0.21 | 89 | 1015.8 |
| 20260510120003 | 56 | 142 | 11.0 | 16.0 | 0.01 | 0.37 | 0.21 | 90 | 1015.9 |
| 20260510115403 | 56 | 141 | 11.0 | 16.0 | 0.01 | 0.37 | 0.21 | 91 | 1016.0 |
| 20260510114717 | 55 | 153 | 12.0 | 19.0 | 0.01 | 0.37 | 0.21 | 91 | 1015.9 |
| 20260510113603 | 55 | 182 | 8.0 | 18.0 | 0.01 | 0.37 | 0.21 | 91 | 1016.1 |
| 20260510112918 | 55 | 199 | 9.0 | 24.0 | 0.02 | 0.36 | 0.20 | 90 | 1015.8 |
| 20260510111803 | 56 | 191 | 8.0 | 21.0 | 0.02 | 0.36 | 0.20 | 91 | 1016.1 |
| 20260510110903 | 57 | 195 | 8.0 | 16.0 | 0.04 | 0.36 | 0.20 | 91 | 1016.3 |
| 20260510110003 | 56 | 200 | 9.0 | 19.0 | 0.13 | 0.36 | 0.20 | 91 | 1016.3 |
| 20260510105403 | 57 | 195 | 8.0 | 18.0 | 0.16 | 0.36 | 0.20 | 91 | 1016.2 |
| 20260510104503 | 56 | 195 | 8.0 | 16.0 | 0.20 | 0.36 | 0.20 | 91 | 1016.2 |
| 20260510103603 | 56 | 182 | 7.0 | 16.0 | 0.20 | 0.36 | 0.20 | 91 | 1016.2 |
| 20260510102703 | 56 | 193 | 7.0 | 14.0 | 0.18 | 0.34 | 0.18 | 91 | 1016.3 |
| 20260510101803 | 56 | 207 | 8.0 | 16.0 | 0.18 | 0.34 | 0.18 | 91 | 1015.8 |
| 20260510100903 | 57 | 213 | 9.0 | 16.0 | 0.17 | 0.33 | 0.17 | 91 | 1016.1 |
| 20260510100003 | 58 | 176 | 6.0 | 13.0 | 0.07 | 0.24 | 0.07 | 90 | 1015.7 |
| 20260510095403 | 58 | 158 | 8.0 | 16.0 | 0.04 | 0.20 | 0.04 | 89 | 1015.5 |
| 20260510094503 | 60 | 149 | 9.0 | 14.0 | 0.00 | 0.16 | 0.00 | 84 | 1015.3 |
| 20260510093603 | 60 | 142 | 8.0 | 15.0 | 0.00 | 0.16 | 0.00 | 84 | 1015.5 |
| 20260510092703 | 60 | 130 | 6.0 | 10.0 | 0.00 | 0.16 | 0.00 | 85 | 1015.3 |
| 20260510092017 | 60 | 129 | 5.0 | 9.0 | 0.00 | 0.16 | 0.00 | 86 | 1015.4 |
| 20260510091118 | 59 | 128 | 6.0 | 10.0 | 0.00 | 0.16 | 0.00 | 87 | 1015.2 |
| 20260510090003 | 60 | 134 | 6.0 | 13.0 | 0.00 | 0.16 | 0.00 | 85 | 1015.4 |
| 20260510085403 | 59 | 132 | 7.0 | 13.0 | 0.00 | 0.16 | 0.00 | 85 | 1015.4 |
| 20260510084503 | 59 | 127 | 7.0 | 13.0 | 0.00 | 0.16 | 0.00 | 86 | 1015.5 |
| 20260510083603 | 59 | 117 | 6.0 | 10.0 | 0.00 | 0.16 | 0.00 | 85 | 1015.4 |
| 20260510082703 | 59 | 119 | 7.0 | 14.0 | 0.00 | 0.16 | 0.00 | 85 | 1015.5 |
| 20260510082016 | 59 | 113 | 6.0 | 14.0 | 0.00 | 0.16 | 0.00 | 84 | 1015.3 |
| 20260510080903 | 58 | 126 | 5.0 | 9.0 | 0.00 | 0.19 | 0.00 | 87 | 1015.3 |
| 20260510080003 | 57 | 128 | 5.0 | 9.0 | 0.00 | 0.20 | 0.00 | 88 | 1015.4 |
| 20260510075403 | 57 | 126 | 5.0 | 9.0 | 0.00 | 0.20 | 0.00 | 89 | 1015.5 |
| 20260510074503 | 56 | 98 | 5.0 | 11.0 | 0.00 | 0.20 | 0.00 | 89 | 1015.5 |
| 20260510073603 | 56 | 98 | 5.0 | 11.0 | 0.00 | 0.20 | 0.00 | 90 | 1015.4 |
| 20260510072703 | 56 | 113 | 5.0 | 10.0 | 0.00 | 0.20 | 0.00 | 90 | 1015.5 |
| 20260510071803 | 56 | 131 | 5.0 | 11.0 | 0.00 | 0.20 | 0.00 | 90 | 1015.7 |
| 20260510070903 | 56 | 129 | 5.0 | 9.0 | 0.00 | 0.20 | 0.00 | 90 | 1015.6 |
| 20260510070217 | 56 | 117 | 5.0 | 9.0 | 0.00 | 0.20 | 0.00 | 89 | 1015.5 |
| 20260510065403 | 56 | 121 | 6.0 | 10.0 | 0.00 | 0.20 | 0.00 | 89 | 1015.6 |
| 20260510064503 | 56 | 124 | 6.0 | 10.0 | 0.00 | 0.20 | 0.00 | 89 | 1015.5 |
| 20260510063817 | 56 | 125 | 6.0 | 11.0 | 0.00 | 0.20 | 0.00 | 88 | 1015.4 |
| 20260510062703 | 56 | 128 | 6.0 | 13.0 | 0.00 | 0.20 | 0.00 | 87 | 1015.3 |
| 20260510061803 | 56 | 116 | 6.0 | 11.0 | 0.00 | 0.20 | 0.00 | 87 | 1015.3 |
| 20260510060903 | 56 | 123 | 5.0 | 15.0 | 0.00 | 0.20 | 0.00 | 87 | 1014.9 |
| 20260510060218 | 56 | 119 | 5.0 | 15.0 | 0.00 | 0.20 | 0.00 | 87 | 1015.3 |
| 20260510055403 | 56 | 110 | 5.0 | 8.0 | 0.00 | 0.20 | 0.00 | 86 | 1015.2 |
| 20260510054503 | 56 | 118 | 6.0 | 11.0 | 0.00 | 0.20 | 0.00 | 85 | 1015.2 |
| 20260510053603 | 56 | 116 | 6.0 | 11.0 | 0.00 | 0.20 | 0.00 | 84 | 1014.8 |
| 20260510052703 | 56 | 111 | 6.0 | 10.0 | 0.00 | 0.20 | 0.00 | 83 | 1015.0 |
| 20260510051803 | 56 | 110 | 5.0 | 9.0 | 0.00 | 0.20 | 0.00 | 83 | 1015.0 |
| 20260510050903 | 56 | 111 | 6.0 | 10.0 | 0.00 | 0.20 | 0.00 | 82 | 1014.8 |
| 20260510050003 | 56 | 111 | 5.0 | 8.0 | 0.00 | 0.20 | 0.00 | 83 | 1014.8 |
| 20260510045403 | 56 | 111 | 4.0 | 7.0 | 0.00 | 0.20 | 0.00 | 84 | 1014.7 |
| 20260510044503 | 56 | 113 | 4.0 | 8.0 | 0.00 | 0.20 | 0.00 | 84 | 1014.8 |
| 20260510043818 | 55 | 114 | 4.0 | 7.0 | 0.00 | 0.20 | 0.00 | 84 | 1014.9 |
| 20260510042703 | 55 | 113 | 3.0 | 7.0 | 0.00 | 0.20 | 0.00 | 85 | 1014.7 |
| 20260510041803 | 55 | 111 | 3.0 | 6.0 | 0.00 | 0.20 | 0.00 | 86 | 1014.5 |
| 20260510040903 | 55 | 112 | 3.0 | 6.0 | 0.00 | 0.20 | 0.00 | 86 | 1014.7 |
| 20260510040003 | 55 | 116 | 3.0 | 4.0 | 0.00 | 0.20 | 0.00 | 87 | 1014.6 |
| 20260510035403 | 55 | 118 | 3.0 | 6.0 | 0.00 | 0.20 | 0.00 | 87 | 1014.8 |
| 20260510034503 | 54 | 117 | 3.0 | 6.0 | 0.00 | 0.20 | 0.00 | 87 | 1014.8 |
| 20260510033603 | 54 | 108 | 3.0 | 7.0 | 0.00 | 0.20 | 0.00 | 87 | 1014.9 |
| 20260510032703 | 55 | 112 | 3.0 | 7.0 | 0.00 | 0.20 | 0.00 | 86 | 1014.7 |
| 20260510031803 | 54 | 121 | 3.0 | 6.0 | 0.00 | 0.20 | 0.00 | 87 | 1014.8 |
| 20260510030903 | 54 | 116 | 3.0 | 7.0 | 0.00 | 0.20 | 0.00 | 87 | 1014.9 |
| 20260510030003 | 54 | 104 | 3.0 | 6.0 | 0.00 | 0.20 | 0.00 | 87 | 1014.8 |
| 20260510025403 | 54 | 102 | 3.0 | 8.0 | 0.00 | 0.20 | 0.00 | 88 | 1015.0 |
| 20260510024718 | 54 | 109 | 4.0 | 8.0 | 0.00 | 0.20 | 0.00 | 87 | 1014.6 |
| 20260510023603 | 55 | 108 | 4.0 | 8.0 | 0.00 | 0.20 | 0.00 | 87 | 1014.9 |
| 20260510022703 | 54 | 102 | 3.0 | 8.0 | 0.00 | 0.20 | 0.00 | 88 | 1015.0 |
| 20260510021803 | 54 | 97 | 3.0 | 6.0 | 0.00 | 0.20 | 0.00 | 87 | 1014.9 |
| 20260510020903 | 55 | 94 | 3.0 | 6.0 | 0.00 | 0.20 | 0.00 | 88 | 1015.1 |
| 20260510020003 | 55 | 100 | 3.0 | 6.0 | 0.00 | 0.20 | 0.00 | 88 | 1015.1 |
| 20260510015403 | 55 | 114 | 3.0 | 6.0 | 0.00 | 0.20 | 0.00 | 88 | 1015.1 |
| 20260510014503 | 54 | 110 | 3.0 | 6.0 | 0.00 | 0.20 | 0.00 | 88 | 1015.2 |
| 20260510013603 | 54 | 111 | 3.0 | 7.0 | 0.00 | 0.20 | 0.00 | 88 | 1015.2 |
| 20260510012704 | 54 | 108 | 3.0 | 8.0 | 0.00 | 0.20 | 0.00 | 88 | 1015.2 |
| 20260510011803 | 54 | 109 | 3.0 | 7.0 | 0.00 | 0.20 | 0.00 | 88 | 1015.3 |
| 20260510010903 | 54 | 95 | 2.0 | 6.0 | 0.00 | 0.20 | 0.00 | 89 | 1015.4 |
| 20260510010003 | 54 | 106 | 2.0 | 4.0 | 0.00 | 0.20 | 0.00 | 89 | 1015.5 |
| 20260510005618 | 54 | 104 | 2.0 | 4.0 | 0.00 | 0.20 | 0.00 | 89 | 1015.5 |
| 20260510004503 | 54 | 85 | 2.0 | 4.0 | 0.00 | 0.20 | 0.00 | 89 | 1015.6 |
| 20260510003603 | 54 | 94 | 2.0 | 4.0 | 0.00 | 0.20 | 0.00 | 89 | 1015.6 |
| 20260510002918 | 54 | 110 | 1.0 | 3.0 | 0.00 | 0.20 | 0.00 | 89 | 1015.6 |
| 20260510001803 | 54 | 116 | 1.0 | 3.0 | 0.00 | 0.20 | 0.00 | 88 | 1015.8 |
| 20260510000903 | 54 | 120 | 1.0 | 3.0 | 0.00 | 0.20 | 0.00 | 88 | 1016.1 |
| 20260510000007 | 55 | 113 | 2.0 | 4.0 | 0.00 | 0.20 | 0.00 | 88 | 1016.0 |
| 20260509235403 | 55 | 119 | 2.0 | 3.0 | 0.00 | 0.20 | 0.20 | 88 | 1016.0 |
| 20260509234503 | 55 | 122 | 2.0 | 3.0 | 0.00 | 0.20 | 0.20 | 86 | 1016.2 |
| 20260509233603 | 55 | 130 | 3.0 | 4.0 | 0.00 | 0.20 | 0.20 | 86 | 1016.0 |
| 20260509232918 | 55 | 143 | 3.0 | 6.0 | 0.00 | 0.20 | 0.20 | 86 | 1016.1 |
| 20260509231803 | 54 | 130 | 3.0 | 6.0 | 0.00 | 0.20 | 0.20 | 87 | 1016.3 |
| 20260509231116 | 55 | 123 | 3.0 | 6.0 | 0.00 | 0.20 | 0.20 | 87 | 1016.2 |
| 20260509230003 | 55 | 139 | 4.0 | 8.0 | 0.00 | 0.20 | 0.20 | 86 | 1016.2 |
| 20260509225403 | 55 | 148 | 5.0 | 8.0 | 0.00 | 0.20 | 0.20 | 86 | 1016.1 |
| 20260509224503 | 55 | 153 | 5.0 | 8.0 | 0.00 | 0.20 | 0.20 | 87 | 1016.1 |
| 20260509223603 | 56 | 146 | 6.0 | 9.0 | 0.00 | 0.20 | 0.20 | 87 | 1016.2 |